FW2000 Weather Reports


time (UTC)temp
C
wind
direction
speed
KPH
gust
KPH
rain 1hr
cm
rain 24hr
cm
rain mn
cm
humidity
%
barometer
mb
20260506124053 9 83 3.2 4.8 0.00 0.08 0.00 89 1021.7
20260506123553 9 83 1.6 4.8 0.00 0.08 0.00 89 1021.5
20260506123053 9 83 1.6 6.4 0.00 0.08 0.00 89 1021.7
20260506122553 9 84 1.6 6.4 0.00 0.08 0.00 89 1021.6
20260506122052 9 82 3.2 6.4 0.00 0.08 0.00 89 1021.5
20260506121553 9 82 3.2 8.0 0.00 0.08 0.00 90 1021.6
20260506121052 9 82 3.2 6.4 0.00 0.08 0.00 90 1021.4
20260506120556 9 83 3.2 4.8 0.00 0.08 0.00 90 1021.5
20260506120052 9 83 1.6 9.7 0.00 0.08 0.00 91 1021.5
20260506115552 9 83 3.2 9.7 0.00 0.10 0.00 91 1021.4
20260506115051 9 84 3.2 6.4 0.00 0.10 0.00 91 1021.7
20260506114553 9 90 3.2 6.4 0.00 0.10 0.00 91 1021.5
20260506114051 9 86 3.2 6.4 0.00 0.10 0.00 91 1021.4
20260506113552 9 87 3.2 6.4 0.00 0.10 0.00 92 1021.5
20260506113051 9 90 3.2 6.4 0.00 0.10 0.00 92 1021.5
20260506112555 8 84 3.2 6.4 0.00 0.10 0.00 92 1021.4
20260506112050 8 84 3.2 6.4 0.00 0.10 0.00 92 1021.5
20260506111550 8 86 3.2 6.4 0.00 0.10 0.00 92 1021.4
20260506111049 8 86 3.2 6.4 0.00 0.10 0.00 92 1021.4
20260506110551 8 86 3.2 6.4 0.00 0.10 0.00 92 1021.4
20260506110049 8 99 1.6 4.8 0.00 0.10 0.00 92 1021.3
20260506105549 8 100 3.2 4.8 0.00 0.13 0.00 92 1021.3
20260506105051 8 107 3.2 4.8 0.00 0.13 0.00 92 1021.3
20260506104550 8 159 1.6 4.8 0.00 0.13 0.00 92 1021.4
20260506104048 8 198 1.6 3.2 0.00 0.13 0.00 92 1021.3
20260506103547 8 198 0.0 3.2 0.00 0.13 0.00 92 1021.4
20260506103047 8 198 0.0 4.8 0.00 0.13 0.00 92 1021.4
20260506102547 8 198 1.6 4.8 0.00 0.13 0.00 92 1021.4
20260506102047 8 199 1.6 4.8 0.00 0.13 0.00 92 1021.3
20260506101547 8 200 1.6 4.8 0.00 0.13 0.00 92 1021.2
20260506101046 8 200 1.6 4.8 0.00 0.13 0.00 92 1021.2
20260506100547 8 200 1.6 6.4 0.00 0.13 0.00 92 1021.2
20260506100046 8 202 1.6 6.4 0.00 0.13 0.00 92 1021.1
20260506095547 8 203 1.6 3.2 0.00 0.18 0.00 92 1021.2
20260506095045 8 267 0.0 1.6 0.00 0.18 0.00 92 1021.1
20260506094601 8 267 0.0 0.0 0.00 0.18 0.00 92 1021.0
20260506094045 8 267 0.0 1.6 0.00 0.18 0.00 92 1021.0
20260506093544 8 267 0.0 3.2 0.00 0.18 0.00 92 1021.0
20260506093044 8 267 0.0 3.2 0.00 0.18 0.00 92 1020.9
20260506092545 8 267 0.0 3.2 0.00 0.18 0.00 92 1020.9
20260506092045 8 267 0.0 4.8 0.00 0.18 0.00 92 1020.8
20260506091546 8 267 0.0 4.8 0.00 0.18 0.00 92 1020.9
20260506091044 8 256 1.6 4.8 0.00 0.18 0.00 91 1020.8
20260506090543 8 254 1.6 4.8 0.00 0.18 0.00 91 1020.9
20260506090043 8 322 1.6 4.8 0.00 0.18 0.00 91 1020.7
20260506085542 8 322 1.6 4.8 0.00 0.25 0.00 91 1020.7
20260506085043 8 323 0.0 4.8 0.00 0.25 0.00 91 1020.6
20260506084544 8 292 1.6 4.8 0.00 0.25 0.00 91 1020.5
20260506084041 8 290 1.6 4.8 0.00 0.25 0.00 91 1020.5
20260506083543 8 289 1.6 6.4 0.00 0.25 0.00 91 1020.3
20260506083041 8 289 3.2 6.4 0.00 0.25 0.00 91 1020.3
20260506082539 8 252 1.6 4.8 0.00 0.25 0.00 91 1020.4
20260506082039 8 186 0.0 3.2 0.00 0.25 0.00 90 1020.4
20260506081539 8 186 0.0 4.8 0.00 0.25 0.00 90 1020.5
20260506081038 9 186 0.0 4.8 0.00 0.25 0.00 90 1020.5
20260506080537 9 181 0.0 3.2 0.00 0.25 0.00 91 1020.7
20260506073032 10 111 1.6 6.4 0.00 0.33 0.00 90 1021.7
20260506072534 10 35 3.2 6.4 0.00 0.33 0.00 90 1021.9
20260506072030 10 77 1.6 3.2 0.00 0.33 0.00 89 1021.4
20260506071531 10 77 0.0 3.2 0.00 0.33 0.00 89 1021.2
20260506071027 10 77 1.6 3.2 0.00 0.33 0.00 89 1021.1
20260506070526 9 91 0.0 3.2 0.00 0.33 0.00 90 1021.0
20260506062023 9 36 1.6 4.8 0.00 0.38 0.33 90 1020.4
20260506061523 9 325 0.0 3.2 0.00 0.38 0.33 89 1020.4
20260506061024 9 283 0.0 1.6 0.00 0.38 0.33 90 1020.4
20260506060527 9 283 0.0 1.6 0.00 0.38 0.33 90 1020.3
20260506051020 10 283 0.0 1.6 0.00 0.38 0.33 89 1020.1
20260506050518 10 284 0.0 1.6 0.00 0.38 0.33 89 1019.9
20260506045015 10 285 0.0 1.6 0.00 0.38 0.33 89 1019.8
20260506044516 10 285 0.0 1.6 0.00 0.38 0.33 89 1019.6
20260506044015 10 285 0.0 1.6 0.00 0.38 0.33 89 1019.6
20260506043515 10 285 0.0 0.0 0.00 0.38 0.33 89 1019.7
20260506043015 10 285 0.0 0.0 0.00 0.38 0.33 89 1019.7
20260506042515 10 285 0.0 1.6 0.00 0.38 0.33 89 1019.6
20260506042015 10 285 0.0 1.6 0.00 0.38 0.33 89 1019.6
20260506041516 10 285 0.0 0.0 0.00 0.38 0.33 89 1019.5
20260506041013 10 285 0.0 0.0 0.00 0.38 0.33 89 1019.6
20260506040513 10 285 0.0 1.6 0.00 0.38 0.33 89 1019.5
20260506040013 10 285 0.0 0.0 0.00 0.38 0.33 89 1019.4
20260506035516 10 285 0.0 0.0 0.00 0.38 0.33 89 1019.4
20260506035011 10 285 0.0 0.0 0.00 0.38 0.33 89 1019.3
20260506034511 10 285 0.0 0.0 0.00 0.38 0.33 89 1019.1
20260506034009 10 285 0.0 0.0 0.00 0.38 0.33 89 1019.0
20260506033508 10 285 0.0 0.0 0.00 0.38 0.33 89 1018.9
20260506033008 10 285 0.0 0.0 0.00 0.38 0.33 89 1018.8
20260506032508 10 285 0.0 0.0 0.00 0.38 0.33 88 1018.8
20260506032008 10 285 0.0 0.0 0.00 0.38 0.33 88 1018.7
20260506031508 10 285 0.0 0.0 0.00 0.38 0.33 88 1018.6
20260506031010 10 285 0.0 1.6 0.00 0.38 0.33 88 1018.6
20260506030508 10 285 0.0 1.6 0.00 0.38 0.33 88 1018.6
20260506030016 10 285 0.0 3.2 0.00 0.38 0.33 88 1018.6
20260506025506 10 285 0.0 3.2 0.00 0.38 0.33 88 1018.7
20260506025006 10 285 0.0 1.6 0.00 0.38 0.33 88 1018.6
20260506024516 10 285 0.0 0.0 0.00 0.38 0.33 88 1018.6
20260506024005 10 285 0.0 0.0 0.00 0.38 0.33 87 1018.6
20260506023505 10 285 0.0 0.0 0.00 0.38 0.33 87 1018.5
20260506023005 10 285 0.0 0.0 0.00 0.38 0.33 87 1018.4
20260506022504 10 285 0.0 0.0 0.00 0.38 0.33 87 1018.3
20260506022004 10 285 0.0 0.0 0.00 0.38 0.33 87 1018.3
20260506021504 10 285 0.0 0.0 0.00 0.38 0.33 87 1018.2
20260506021003 10 285 0.0 0.0 0.00 0.38 0.33 86 1018.2
20260506020503 10 285 0.0 0.0 0.00 0.38 0.33 86 1018.3
20260506020005 10 285 0.0 0.0 0.00 0.38 0.33 86 1018.1
20260506015503 10 285 0.0 0.0 0.00 0.38 0.33 86 1018.3
20260506015003 10 285 0.0 3.2 0.00 0.38 0.33 86 1018.3
20260506014502 10 285 0.0 3.2 0.00 0.38 0.33 86 1018.3
20260506014002 10 285 0.0 4.8 0.00 0.38 0.33 86 1018.2
20260506013501 10 284 1.6 4.8 0.00 0.38 0.33 87 1018.2
20260506013002 10 282 0.0 3.2 0.00 0.38 0.33 87 1018.3
20260506012502 10 282 0.0 3.2 0.00 0.38 0.33 87 1018.4
20260506012059 10 281 0.0 3.2 0.00 0.38 0.33 86 1018.3
20260506011559 10 281 0.0 4.8 0.00 0.38 0.33 86 1018.3
20260506011101 10 284 0.0 3.2 0.00 0.38 0.33 85 1018.2
20260506010600 10 283 0.0 3.2 0.00 0.38 0.33 85 1018.2
20260506010057 10 281 0.0 3.2 0.00 0.38 0.33 85 1018.2
20260506005559 11 310 0.0 3.2 0.00 0.38 0.33 85 1018.3
20260506005055 11 310 0.0 1.6 0.00 0.38 0.33 84 1018.2
20260506004556 11 311 0.0 4.8 0.00 0.38 0.33 84 1018.2
20260506004055 11 311 1.6 4.8 0.00 0.38 0.33 84 1018.2
20260506003553 11 311 0.0 1.6 0.00 0.38 0.33 85 1018.3
20260506003053 11 311 0.0 1.6 0.00 0.38 0.33 86 1018.2
20260506002551 11 311 0.0 1.6 0.00 0.38 0.33 86 1018.2
20260506002050 10 311 0.0 1.6 0.00 0.38 0.33 85 1018.2
20260506001551 11 311 0.0 1.6 0.00 0.38 0.33 85 1018.3
20260506001050 11 311 0.0 0.0 0.00 0.38 0.33 85 1018.3
20260506000549 11 311 0.0 3.2 0.00 0.38 0.33 85 1018.2
20260506000052 10 311 0.0 3.2 0.00 0.38 0.33 85 1018.3
20260505235549 10 300 0.0 4.8 0.00 0.38 0.33 85 1018.3
20260505235049 10 300 1.6 4.8 0.00 0.38 0.33 85 1018.2
20260505234553 10 300 0.0 4.8 0.00 0.38 0.33 85 1018.3
20260505234051 10 300 0.0 4.8 0.00 0.38 0.33 85 1018.2
20260505233548 10 291 0.0 4.8 0.00 0.38 0.33 84 1018.0
20260505233049 10 290 1.6 4.8 0.00 0.38 0.33 84 1018.0
20260505232548 10 292 0.0 3.2 0.00 0.38 0.33 84 1018.1
20260505232048 10 291 0.0 3.2 0.00 0.38 0.33 84 1018.1
20260505231559 10 292 0.0 4.8 0.00 0.38 0.33 85 1018.0
20260505231048 10 291 0.0 6.4 0.00 0.38 0.33 85 1018.1
20260505230548 10 292 0.0 3.2 0.00 0.38 0.33 84 1018.0
20260505230056 10 291 0.0 3.2 0.00 0.38 0.33 84 1018.0
20260505225547 10 291 0.0 6.4 0.00 0.38 0.33 84 1018.1
20260505225053 11 291 1.6 6.4 0.00 0.38 0.33 84 1018.1
20260505224548 11 302 0.0 3.2 0.00 0.38 0.33 84 1018.1
20260505224046 11 302 0.0 3.2 0.00 0.38 0.33 84 1018.1
20260505223546 11 302 0.0 3.2 0.00 0.38 0.33 84 1018.1
20260505223046 11 302 0.0 3.2 0.00 0.38 0.33 84 1018.2
20260505222546 11 302 0.0 3.2 0.00 0.38 0.33 84 1018.3
20260505222045 11 304 1.6 3.2 0.00 0.38 0.33 85 1018.2
20260505221545 10 271 0.0 3.2 0.00 0.38 0.33 85 1018.2
20260505221044 10 267 0.0 4.8 0.00 0.38 0.33 84 1018.2
20260505220544 10 265 0.0 6.4 0.00 0.38 0.33 84 1018.2
20260505220044 10 290 1.6 8.0 0.00 0.38 0.33 85 1018.2
20260505215543 10 288 1.6 8.0 0.00 0.41 0.33 86 1018.1
20260505215043 10 296 1.6 6.4 0.00 0.41 0.33 86 1018.1
20260505214543 10 275 0.0 9.7 0.00 0.41 0.33 86 1018.2
20260505214042 10 284 3.2 9.7 0.00 0.41 0.33 85 1018.3
20260505213542 10 228 0.0 6.4 0.00 0.41 0.33 85 1018.3
20260505213052 10 287 1.6 6.4 0.00 0.41 0.33 86 1018.3
20260505212542 10 265 0.0 8.0 0.00 0.41 0.33 88 1018.2
20260505212041 10 226 1.6 8.0 0.00 0.41 0.33 87 1018.2
20260505211545 10 230 0.0 6.4 0.00 0.41 0.33 87 1018.3
20260505211043 9 242 1.6 11.3 0.00 0.41 0.33 87 1018.4
20260505210540 9 277 1.6 11.3 0.00 0.41 0.33 87 1018.3
20260505210040 9 285 3.2 12.9 0.00 0.41 0.33 86 1018.2
20260505205540 9 288 3.2 12.9 0.00 0.48 0.33 87 1018.1
20260505205041 10 284 4.8 12.9 0.00 0.48 0.33 88 1018.1
20260505204540 10 301 4.8 8.0 0.00 0.48 0.33 88 1018.3
20260505204039 10 261 3.2 8.0 0.00 0.48 0.33 88 1018.2
20260505203539 10 240 3.2 8.0 0.00 0.48 0.33 87 1018.2
20260505203039 10 238 4.8 11.3 0.00 0.48 0.33 86 1018.1
20260505202539 10 282 4.8 11.3 0.00 0.48 0.33 86 1018.1
20260505202040 10 283 3.2 14.5 0.00 0.48 0.33 86 1017.9
20260505201539 10 282 4.8 14.5 0.00 0.48 0.33 86 1017.9
20260505201039 10 309 4.8 8.0 0.00 0.48 0.33 87 1018.0
20260505200539 10 288 3.2 11.3 0.00 0.48 0.33 86 1018.1
20260505200040 10 300 3.2 12.9 0.00 0.48 0.33 86 1018.2
20260505195538 10 304 4.8 12.9 0.00 0.48 0.33 86 1018.1
20260505195037 10 291 1.6 6.4 0.00 0.48 0.33 84 1018.3
20260505194537 10 281 1.6 12.9 0.00 0.48 0.33 85 1018.2
20260505194036 10 289 1.6 12.9 0.00 0.48 0.33 87 1018.2
20260505193534 10 297 3.2 11.3 0.00 0.48 0.33 86 1018.2
20260505193033 10 262 3.2 11.3 0.00 0.48 0.33 87 1018.1
20260505192535 10 311 3.2 8.0 0.00 0.48 0.33 88 1018.2
20260505192031 10 273 1.6 12.9 0.00 0.48 0.33 87 1018.0
20260505191533 10 284 3.2 12.9 0.00 0.48 0.33 88 1018.2
20260505191031 10 291 3.2 11.3 0.00 0.48 0.33 88 1018.1
20260505190527 10 288 3.2 11.3 0.00 0.48 0.33 89 1018.0
20260505190027 9 292 1.6 11.3 0.00 0.48 0.33 89 1017.9
20260505185525 9 290 4.8 9.7 0.00 0.48 0.33 89 1017.9
20260505185024 9 248 3.2 12.9 0.00 0.48 0.33 88 1017.8
20260505184524 9 285 4.8 14.5 0.00 0.48 0.33 88 1017.7
20260505184024 9 292 4.8 14.5 0.00 0.48 0.33 88 1017.7
20260505183523 9 303 4.8 9.7 0.00 0.48 0.33 89 1017.8
20260505183033 9 302 3.2 8.0 0.00 0.48 0.33 89 1017.7
20260505182523 9 301 1.6 6.4 0.00 0.48 0.33 89 1017.8
20260505182023 9 287 1.6 6.4 0.00 0.48 0.33 89 1017.7
20260505181522 9 307 1.6 6.4 0.00 0.48 0.33 89 1017.7
20260505181021 9 290 1.6 4.8 0.00 0.48 0.33 89 1017.8
20260505180519 9 293 0.0 4.8 0.00 0.48 0.33 89 1017.6
20260505180038 9 294 1.6 4.8 0.00 0.48 0.33 90 1017.6
20260505175516 8 271 1.6 8.0 0.00 0.48 0.33 90 1017.6
20260505175016 8 290 0.0 8.0 0.00 0.48 0.33 91 1017.5
20260505174515 8 255 1.6 6.4 0.00 0.48 0.33 91 1017.3
20260505174015 8 272 1.6 8.0 0.03 0.48 0.33 91 1017.3
20260505173514 8 278 3.2 11.3 0.03 0.48 0.33 91 1017.3
20260505173014 8 288 3.2 11.3 0.03 0.48 0.33 91 1017.2
20260505172516 8 240 1.6 8.0 0.03 0.48 0.33 92 1017.1
20260505172017 8 284 3.2 8.0 0.03 0.48 0.33 92 1017.3
20260505171513 8 219 3.2 8.0 0.03 0.48 0.33 92 1017.1
20260505171114 8 263 3.2 6.4 0.03 0.48 0.33 92 1017.0
20260505170512 8 253 3.2 6.4 0.03 0.48 0.33 92 1017.1
20260505170012 8 250 3.2 6.4 0.03 0.51 0.33 92 1017.2
20260505165509 8 215 3.2 9.7 0.03 0.51 0.33 92 1017.1
20260505165011 8 248 1.6 6.4 0.03 0.51 0.33 92 1016.8
20260505164509 8 281 3.2 11.3 0.00 0.48 0.30 93 1016.9
20260505164009 8 229 3.2 12.9 0.00 0.48 0.30 93 1017.0
20260505163513 8 288 3.2 12.9 0.00 0.48 0.30 93 1017.0
20260505163008 8 242 1.6 8.0 0.00 0.48 0.30 93 1016.9
20260505162505 8 211 3.2 6.4 0.00 0.48 0.30 93 1017.0
20260505162003 8 245 1.6 6.4 0.00 0.48 0.30 93 1017.0
20260505161504 8 286 1.6 6.4 0.00 0.48 0.30 93 1016.9
20260505161003 8 284 0.0 0.0 0.00 0.48 0.30 93 1016.9
20260505160501 8 284 0.0 0.0 0.00 0.48 0.30 93 1016.9
20260505153058 7 284 0.0 3.2 0.03 0.48 0.30 93 1016.8
20260505152557 7 284 0.0 0.0 0.03 0.48 0.30 93 1016.9
20260505152059 7 284 0.0 1.6 0.03 0.48 0.30 93 1016.8
20260505151554 7 284 0.0 1.6 0.03 0.48 0.30 93 1016.9
20260505151054 7 284 0.0 1.6 0.03 0.48 0.30 93 1016.8
20260505150554 7 284 0.0 1.6 0.03 0.48 0.30 93 1016.8
20260505140544 6 284 0.0 3.2 0.03 0.53 0.28 93 1016.4
20260505125039 6 284 1.6 3.2 0.00 0.99 0.25 93 1016.3
20260505124538 6 284 1.6 3.2 0.00 0.99 0.25 93 1016.3